[[{"header":{"parameterUnit":"m.s-1","parameterCategory":1,"la1":30.2991,"la2":30.254,"lo1":-89.0895,"lo2":-89.0444,"dy":0.0017,"dx":0.0017,"nx":28,"ny":28,"refTime":"2025-04-03T21:00:00:Z","depth":0,"parameterNumber":2,"parameterNumberName":"U-component_of_WINDS"},"data":[0,0,0,0,0,0,0,0,0,0,0,0,0,0,0,0,0,0,0,0,0,0,0,0,0,0,0,0,0,0,0,0,0,0,0,0,0,0,0,0,0,0,0,0,0,0,0,0,0,0,0,0,0,0,0,0,0,0,-5.1391,-5.1392,0,-5.1496,-5.1497,-5.1498,-5.1492,-5.149,-5.1489,-5.1487,-5.1593,-5.1598,-5.1602,0,0,0,0,0,0,0,0,0,0,0,0,0,-5.1185,-5.1189,-5.1391,-5.1392,-5.1394,-5.1496,-5.1497,-5.1499,-5.1492,-5.149,-5.1488,-5.1486,-5.1592,-5.1597,-5.1602,0,0,0,0,0,0,0,0,0,0,0,0,0,-5.1281,-5.119,-5.1391,-5.1403,-5.1405,-5.1495,-5.1497,-5.1499,-5.1492,-5.149,-5.1488,-5.1486,-5.159,-5.1597,-5.1603,-5.1688,0,0,-5.1622,-5.1625,0,0,0,0,0,0,0,0,-5.1275,-5.1288,-5.14,-5.1402,-5.1404,-5.1478,-5.1464,-5.1562,-5.1493,-5.1459,-5.1487,-5.1484,-5.1557,-5.1566,-5.1591,-5.1693,-5.1698,-5.1623,-5.1627,-5.163,-5.1631,0,0,0,0,0,0,0,-5.1269,-5.1284,-5.1432,-5.1401,-5.1404,-5.1403,-5.1414,-5.1482,-5.152,-5.1462,-5.1462,-5.1474,-5.1558,-5.1584,-5.1593,-5.1699,-5.1623,-5.1628,-5.1632,-5.1635,-5.1878,-5.188,0,0,0,0,0,0,-5.126,-5.1278,-5.1429,-5.1436,-5.1333,-5.1408,-5.1421,-5.1457,-5.1519,-5.1526,-5.1476,-5.1473,-5.1575,-5.1586,-5.1597,-5.17,-5.163,-5.1636,-5.1639,-5.1875,-5.1879,-5.1881,0,0,0,0,0,0,-5.1255,-5.1273,-5.1425,-5.1357,-5.1376,-5.1414,-5.1455,-5.146,-5.1487,-5.153,-5.1536,-5.1496,-5.1573,-5.1588,-5.1666,-5.1704,-5.1638,-5.1644,-5.1872,-5.1876,-5.188,-5.1907,0,0,0,0,0,0,-5.1249,-5.1272,-5.1304,-5.1358,-5.138,-5.1492,-5.1458,-5.1464,-5.1498,-5.1496,-5.155,-5.1557,-5.1573,-5.1656,-5.1672,-5.1711,-5.1649,-5.1869,-5.1874,-5.1879,-5.1903,-5.1912,-5.1919,0,0,0,0,0,-5.1242,-5.1307,-5.1306,-5.1324,-5.1421,-5.1494,-5.1507,-5.1523,-5.1501,-5.1534,-5.1562,-5.1555,-5.1698,-5.1664,-5.1682,-5.1724,-5.1867,-5.1873,-5.1878,-5.19,-5.191,-5.1919,0,0,0,0,0,0,-5.1256,-5.1314,-5.1313,-5.1398,-5.1441,-5.1493,-5.1534,-5.1534,-5.1584,-5.1579,-5.1598,-5.1611,-5.1689,-5.1715,-5.1676,-5.181,-5.1779,-5.1789,-5.1789,-5.18,-5.1808,-5.1798,-5.1654,0,0,0,0,0,-5.1269,-5.1323,-5.1372,-5.1442,-5.1464,-5.1496,-5.1528,-5.1538,-5.1583,-5.1601,-5.1634,-5.1678,-5.1733,-5.1768,-5.1821,-5.1909,-5.192,-5.1946,-5.1954,-5.196,-5.1967,-5.2015,-5.2027,-5.1901,-5.1901,-5.1901,0,0,-5.1296,-5.1335,-5.1368,-5.1446,-5.148,-5.1536,-5.1511,-5.157,-5.1612,-5.161,-5.1685,-5.1712,-5.1762,-5.1845,-5.1883,-5.1869,-5.2006,-5.1968,-5.1973,-5.1976,-5.2023,-5.2034,-5.2045,-5.1905,-5.1904,-5.1903,0,0,-5.1373,-5.1409,-5.147,-5.1506,-5.1559,-5.1581,-5.1596,-5.1649,-5.1666,-5.1742,-5.1742,-5.1792,-5.1886,-5.1922,-5.1953,-5.2047,-5.2042,-5.2064,-5.2104,-5.215,-5.216,-5.2169,-5.2201,-5.2212,-5.2072,-5.2072,-5.2072,0,-5.1399,-5.1483,-5.1502,-5.1562,-5.1597,-5.1599,-5.1662,-5.1696,-5.1764,-5.1787,-5.1771,-5.1889,-5.1924,-5.2015,-5.2038,-5.2064,-5.2081,-5.2056,-5.2157,-5.2167,-5.2175,-5.2206,-5.2218,-5.2074,-5.2074,-5.2073,-5.2073,0,-5.1512,-5.157,-5.1614,-5.168,-5.172,-5.1781,-5.181,-5.1848,-5.1855,-5.1878,-5.1956,-5.1999,-5.206,-5.2083,-5.209,-5.2176,-5.2165,-5.2153,-5.2122,-5.2189,-5.2218,-5.223,-5.2077,-5.2076,-5.2075,-5.2075,0,0,-5.1596,-5.1674,-5.169,-5.172,-5.178,-5.1825,-5.1888,-5.1949,-5.198,-5.2028,-5.208,-5.2161,-5.2151,-5.2186,-5.2198,-5.2239,-5.231,-5.2222,-5.2224,-5.2235,-5.2405,-5.2411,-5.2424,-5.2309,-5.2311,-5.2313,-5.24,0,-5.1677,-5.1787,-5.1807,-5.1903,-5.1957,-5.1962,-5.2016,-5.2059,-5.2084,-5.2134,-5.2161,-5.2217,-5.22,-5.2221,-5.2263,-5.2292,-5.2343,-5.2287,-5.2356,-5.2358,-5.2339,-5.244,-5.2446,-5.2525,-5.2412,-5.2414,-5.2415,0,-5.1785,-5.1836,-5.1937,-5.1991,-5.2015,-5.2063,-5.2121,-5.2169,-5.2218,-5.2233,-5.2274,-5.2282,-5.2347,-5.2316,-5.2406,-5.2367,-5.2398,-5.2417,-5.242,-5.2424,-5.2388,-5.2444,-5.2551,-5.2562,-5.2433,-5.2432,-5.2431,0,-5.1834,-5.1928,-5.2,-5.2027,-5.2092,-5.2126,-5.2155,-5.2203,-5.2238,-5.2289,-5.2313,-5.2371,-5.2402,-5.2447,-5.2471,-5.2447,-5.2559,-5.253,-5.2572,-5.2571,-5.2592,-5.259,-5.2703,-5.2617,-5.2617,-5.2617,-5.2616,0,-5.192,-5.1981,-5.2023,-5.2067,-5.2136,-5.2161,-5.2228,-5.2257,-5.23,-5.235,-5.2359,-5.2406,-5.2436,-5.2488,-5.2507,-5.2578,-5.2593,-5.2606,-5.261,-5.2603,-5.2601,-5.262,-5.2614,-5.262,-5.2619,-5.2619,-5.2618,0,-5.1983,-5.2015,-5.2094,-5.215,-5.2166,-5.2214,-5.2263,-5.2306,-5.2332,-5.2396,-5.2412,-5.2452,-5.2514,-5.2543,-5.2619,-5.2632,-5.2712,-5.2714,-5.2694,-5.2695,-5.2735,-5.2729,-5.2861,-5.2879,-5.2784,-5.2785,-5.2786,0,-5.2034,-5.2082,-5.2144,-5.2178,-5.2208,-5.2264,-5.2301,-5.2328,-5.2366,-5.2427,-5.2463,-5.2525,-5.2575,-5.2673,-5.2709,-5.2768,-5.2769,-5.2812,-5.2778,-5.277,-5.2767,-5.2762,-5.2767,-5.2816,-5.2817,-5.2818,-5.2819,0,-5.2121,-5.2135,-5.2187,-5.2246,-5.229,-5.2338,-5.2384,-5.2412,-5.2447,-5.249,-5.2552,-5.2592,-5.267,-5.2731,-5.2793,-5.2823,-5.2826,-5.283,-5.2842,-5.2834,-5.282,-5.2826,-5.2708,-5.2826,-5.2825,-5.2824,-5.2824,-5.2824,-5.2178,-5.222,-5.2271,-5.233,-5.2369,-5.2413,-5.2456,-5.2489,-5.2542,-5.2607,-5.2621,-5.2687,-5.2738,-5.2821,-5.2854,-5.2906,-5.2896,-5.2915,-5.2919,-5.2922,-5.2923,-5.2815,-5.2918,-5.2918,-5.2918,-5.2917,-5.2917,0,-5.2263,-5.2297,-5.2351,-5.2417,-5.2463,-5.2465,-5.2518,-5.2556,-5.2614,-5.2662,-5.2712,-5.2784,-5.2845,-5.2887,-5.2948,-5.2982,-5.2985,-5.2997,-5.2993,-5.2999,-5.2929,-5.2911,-5.2993,-5.2993,-5.2993,-5.2993,-5.2993,-5.2993,-5.2313,-5.2384,-5.2404,-5.2495,-5.2528,-5.2594,-5.2623,-5.2664,-5.2702,-5.2783,-5.2833,-5.2861,-5.2906,-5.2971,-5.3026,-5.3037,-5.3058,-5.307,-5.308,-5.3013,-5.3004,-5.2997,-5.298,-5.3075,-5.3075,-5.3146,-5.3146,-5.3147]},{"header":{"parameterUnit":"m.s-1","parameterCategory":1,"la1":30.2991,"la2":30.254,"lo1":-89.0895,"lo2":-89.0444,"dy":0.0017,"dx":0.0017,"nx":28,"ny":28,"refTime":"2025-04-03T21:00:00:Z","depth":0,"parameterNumber":3,"parameterNumberName":"V-component_of_WINDS"},"data":[0,0,0,0,0,0,0,0,0,0,0,0,0,0,0,0,0,0,0,0,0,0,0,0,0,0,0,0,0,0,0,0,0,0,0,0,0,0,0,0,0,0,0,0,0,0,0,0,0,0,0,0,0,0,0,0,0,0,3.09,3.0901,0,3.0981,3.0982,3.0983,3.1011,3.1011,3.1011,3.1011,3.1093,3.1095,3.1098,0,0,0,0,0,0,0,0,0,0,0,0,0,3.077,3.0772,3.09,3.0901,3.0902,3.0981,3.0982,3.0983,3.1011,3.1011,3.1011,3.101,3.1092,3.1095,3.1098,0,0,0,0,0,0,0,0,0,0,0,0,0,3.0836,3.0773,3.0899,3.0925,3.0928,3.0981,3.0982,3.0984,3.1012,3.1011,3.1011,3.101,3.1091,3.1095,3.1099,3.1131,0,0,3.111,3.1112,0,0,0,0,0,0,0,0,3.0832,3.0841,3.092,3.0924,3.0927,3.0986,3.0967,3.1033,3.1012,3.098,3.1011,3.101,3.1058,3.1064,3.108,3.1135,3.1138,3.111,3.1113,3.1114,3.1115,0,0,0,0,0,0,0,3.0828,3.0838,3.0932,3.0922,3.0926,3.0933,3.0942,3.0979,3.102,3.0983,3.0985,3.0994,3.1059,3.1077,3.1083,3.114,3.111,3.1114,3.1116,3.1117,3.1228,3.1229,0,0,0,0,0,0,3.0819,3.0834,3.0929,3.0934,3.0878,3.0936,3.0946,3.0967,3.102,3.1028,3.0995,3.0995,3.1071,3.1078,3.1086,3.1129,3.1114,3.1118,3.112,3.1228,3.1229,3.1229,0,0,0,0,0,0,3.0816,3.0827,3.0926,3.0885,3.0898,3.0939,3.0963,3.0969,3.0987,3.1029,3.1037,3.1005,3.1071,3.108,3.112,3.1133,3.1119,3.1123,3.1227,3.1228,3.1229,3.1216,0,0,0,0,0,0,3.0812,3.0826,3.0838,3.0885,3.09,3.0959,3.0963,3.0971,3.0993,3.0995,3.1041,3.1048,3.1071,3.1115,3.1124,3.1137,3.1126,3.1226,3.1227,3.1229,3.1215,3.1216,3.1217,0,0,0,0,0,3.0807,3.083,3.0838,3.085,3.0916,3.0959,3.0968,3.0995,3.0994,3.1007,3.1035,3.1046,3.113,3.1118,3.1129,3.1144,3.1225,3.1227,3.1228,3.1215,3.1216,3.1217,0,0,0,0,0,0,3.0782,3.0836,3.0846,3.0885,3.0917,3.0964,3.0981,3.0995,3.1028,3.1028,3.1059,3.107,3.1108,3.113,3.1116,3.118,3.1178,3.1182,3.1164,3.1165,3.1166,3.116,3.1129,0,0,0,0,0,3.0781,3.0812,3.0858,3.0887,3.0903,3.0939,3.0959,3.0977,3.1012,3.1026,3.1057,3.109,3.1125,3.1146,3.1179,3.1219,3.123,3.1234,3.1235,3.1236,3.1239,3.1264,3.1267,3.1235,3.1235,3.1235,0,0,3.0779,3.0813,3.083,3.0883,3.091,3.0943,3.0951,3.0983,3.1008,3.1031,3.1071,3.1095,3.1135,3.1175,3.1195,3.1195,3.1251,3.1238,3.1238,3.1241,3.1266,3.1269,3.1272,3.1236,3.1235,3.1235,0,0,3.0792,3.082,3.0849,3.0877,3.0919,3.0944,3.0951,3.0996,3.1014,3.1055,3.1074,3.1104,3.1161,3.119,3.1211,3.1239,3.1252,3.1249,3.1254,3.1278,3.1281,3.1283,3.1295,3.1299,3.1252,3.1252,3.1252,0,3.0784,3.0833,3.0862,3.0895,3.0919,3.0943,3.0973,3.0999,3.105,3.1066,3.1066,3.1141,3.1169,3.1218,3.1225,3.1241,3.1252,3.1244,3.1278,3.1281,3.1284,3.1295,3.13,3.1252,3.1252,3.1252,3.1252,0,3.0822,3.0856,3.0875,3.0925,3.0951,3.0982,3.1017,3.104,3.1056,3.1081,3.1125,3.116,3.1202,3.1215,3.1231,3.1268,3.1267,3.1272,3.1271,3.1286,3.1298,3.1302,3.1251,3.1251,3.1251,3.1251,0,0,3.0819,3.0888,3.0894,3.0919,3.0969,3.0996,3.1029,3.1072,3.1092,3.1127,3.1157,3.1207,3.1213,3.1238,3.1258,3.1279,3.1302,3.1282,3.1283,3.1286,3.1347,3.1344,3.1349,3.1311,3.1312,3.1312,3.1345,0,3.084,3.0901,3.093,3.0979,3.1012,3.1037,3.1067,3.1102,3.1127,3.1159,3.1187,3.1222,3.1226,3.1242,3.1264,3.1294,3.1315,3.1292,3.134,3.1342,3.133,3.1355,3.135,3.1379,3.1349,3.135,3.1351,0,3.0871,3.0909,3.0961,3.1011,3.1026,3.1052,3.1095,3.1125,3.1166,3.1183,3.1213,3.1232,3.127,3.1267,3.1321,3.1305,3.1326,3.1344,3.1346,3.1352,3.1347,3.1363,3.1389,3.1394,3.1358,3.1357,3.1357,0,3.0867,3.0929,3.097,3.099,3.1048,3.1066,3.1091,3.1132,3.1157,3.1195,3.1212,3.1253,3.1276,3.1308,3.1339,3.1333,3.1391,3.1389,3.1407,3.1406,3.1418,3.1417,3.1449,3.143,3.143,3.143,3.143,0,3.0887,3.0919,3.0969,3.0994,3.1031,3.1065,3.1101,3.1128,3.1164,3.1196,3.122,3.1249,3.1287,3.1322,3.1346,3.1389,3.1398,3.1414,3.142,3.1413,3.1411,3.1428,3.1427,3.1431,3.1431,3.143,3.143,0,3.0887,3.0922,3.0968,3.1021,3.1035,3.106,3.1105,3.1131,3.1159,3.1199,3.121,3.1253,3.1295,3.133,3.1384,3.1401,3.1446,3.1452,3.1432,3.1436,3.1453,3.1451,3.1498,3.1506,3.148,3.148,3.148,0,3.0898,3.0924,3.098,3.1003,3.1029,3.1065,3.1092,3.1127,3.1154,3.1204,3.1225,3.1269,3.1306,3.1373,3.141,3.1452,3.1461,3.1474,3.1467,3.146,3.1463,3.1462,3.1466,3.1475,3.1475,3.1475,3.1475,0,3.0915,3.0932,3.0969,3.1014,3.1045,3.1082,3.1119,3.1137,3.1179,3.1208,3.1252,3.1281,3.1339,3.1384,3.1431,3.1458,3.1474,3.1477,3.1484,3.1477,3.1465,3.1474,3.1436,3.1476,3.1476,3.1476,3.1476,3.1476,3.0922,3.0947,3.0991,3.1033,3.1066,3.1101,3.1129,3.1161,3.1199,3.1249,3.1268,3.1314,3.1357,3.1423,3.145,3.1487,3.1489,3.1498,3.1501,3.1503,3.1503,3.1459,3.1496,3.1496,3.1496,3.1496,3.1496,0,3.0941,3.0972,3.101,3.1063,3.1096,3.111,3.1153,3.118,3.1221,3.126,3.1298,3.135,3.1395,3.1436,3.1482,3.1505,3.1514,3.1516,3.1515,3.1521,3.1498,3.1488,3.1508,3.1508,3.1508,3.1508,3.1508,3.1508,3.0955,3.0999,3.1022,3.1084,3.1114,3.1161,3.1184,3.1218,3.125,3.1308,3.1345,3.1372,3.1413,3.1464,3.1506,3.1517,3.1533,3.1534,3.1547,3.1524,3.1523,3.1521,3.1512,3.1537,3.1537,3.1568,3.1568,3.1568]}]]